Wetterdaten: aktuell Freitag, 24.05.2019 09:40
Datum Zeit Temp. 2m Temp. -50cm Temp. -10cm Temp. -5cm Temp. +5cm Feuchte 2m Feuch. -10cm Luftdruck Regen Wind Richtung Richtung Sonnenschein Solar Windben
24.05.2019 09:40 14,2 C 13,9 C 14,2 C 14,2 C 18,1 C 69 % 9 cb 1015,8 hPa 0,0 l/m 3,2 km/h N-NO 22 5 min 604 W/m 8,0 km/h
24.05.2019 09:35 13,9 C 13,9 C 14,2 C 14,2 C 18,2 C 70 % 9 cb 1015,9 hPa 0,0 l/m 2,9 km/h N-NO 22 5 min 590 W/m 6,4 km/h
24.05.2019 09:30 13,4 C 13,9 C 14,2 C 14,2 C 17,8 C 70 % 9 cb 1016,1 hPa 0,0 l/m 4,1 km/h N-NW 338 5 min 578 W/m 9,6 km/h
24.05.2019 09:25 13,4 C 13,9 C 14,2 C 14,2 C 17,4 C 71 % 9 cb 1016,1 hPa 0,0 l/m 3,3 km/h N-NW 338 5 min 566 W/m 8,0 km/h
24.05.2019 09:20 13,1 C 13,9 C 14,2 C 14,2 C 16,9 C 69 % 9 cb 1016,2 hPa 0,0 l/m 1,3 km/h W-NW 292 5 min 552 W/m 6,4 km/h
24.05.2019 09:15 13,1 C 13,9 C 14,2 C 14,2 C 17,4 C 70 % 9 cb 1016,3 hPa 0,0 l/m 4,9 km/h NO 45 5 min 539 W/m 11,2 km/h
24.05.2019 09:10 13,2 C 13,9 C 14,2 C 14,2 C 16,7 C 69 % 9 cb 1016,3 hPa 0,0 l/m 3,7 km/h N-NO 22 5 min 525 W/m 8,0 km/h
24.05.2019 09:05 12,8 C 13,9 C 14,2 C 14,2 C 16,4 C 71 % 9 cb 1016,5 hPa 0,0 l/m 0,4 km/h NO 45 5 min 510 W/m 3,2 km/h
24.05.2019 09:00 12,6 C 13,9 C 14,3 C 14,2 C 16,9 C 72 % 9 cb 1016,6 hPa 0,0 l/m 2,7 km/h NO 45 5 min 488 W/m 6,4 km/h
24.05.2019 08:55 12,4 C 13,9 C 14,3 C 14,2 C 16,4 C 73 % 9 cb 1016,7 hPa 0,0 l/m 0,7 km/h N-NW 338 5 min 479 W/m 3,2 km/h
24.05.2019 08:50 12,2 C 13,9 C 14,3 C 14,2 C 16,3 C 74 % 9 cb 1016,9 hPa 0,0 l/m 1,4 km/h N 360 5 min 466 W/m 4,8 km/h
24.05.2019 08:45 11,8 C 13,9 C 14,3 C 14,2 C 15,7 C 74 % 9 cb 1017,1 hPa 0,0 l/m 2,4 km/h N 360 5 min 457 W/m 6,4 km/h
24.05.2019 08:40 11,7 C 13,9 C 14,3 C 14,2 C 15,3 C 76 % 9 cb 1017,2 hPa 0,0 l/m 4,0 km/h N-NO 22 5 min 441 W/m 6,4 km/h
24.05.2019 08:35 11,3 C 13,9 C 14,3 C 14,2 C 14,1 C 76 % 9 cb 1017,4 hPa 0,0 l/m 3,3 km/h N 360 5 min 428 W/m 8,0 km/h
24.05.2019 08:30 11,2 C 13,9 C 14,4 C 14,2 C 14,7 C 76 % 9 cb 1017,4 hPa 0,0 l/m 3,0 km/h N 360 5 min 414 W/m 6,4 km/h
24.05.2019 08:25 11,1 C 13,9 C 14,4 C 14,2 C 14,5 C 76 % 9 cb 1017,4 hPa 0,0 l/m 1,9 km/h N-NO 22 5 min 400 W/m 4,8 km/h
24.05.2019 08:20 10,9 C 13,9 C 14,4 C 14,2 C 14,1 C 77 % 9 cb 1017,5 hPa 0,0 l/m 0,4 km/h N-NO 22 5 min 387 W/m 3,2 km/h
24.05.2019 08:15 10,7 C 13,9 C 14,4 C 14,2 C 13,7 C 77 % 9 cb 1017,6 hPa 0,0 l/m 2,9 km/h N-NO 22 5 min 374 W/m 6,4 km/h
24.05.2019 08:10 10,7 C 13,9 C 14,4 C 14,3 C 13,2 C 77 % 9 cb 1017,7 hPa 0,0 l/m 4,0 km/h N-NO 22 5 min 359 W/m 6,4 km/h
24.05.2019 08:05 10,8 C 13,9 C 14,4 C 14,3 C 13,2 C 78 % 9 cb 1017,7 hPa 0,0 l/m 4,9 km/h NO 45 5 min 345 W/m 8,0 km/h
24.05.2019 08:00 10,5 C 13,9 C 14,5 C 14,3 C 13,2 C 78 % 9 cb 1017,7 hPa 0,0 l/m 2,7 km/h N-NO 22 5 min 330 W/m 6,4 km/h
24.05.2019 07:55 10,5 C 13,9 C 14,5 C 14,3 C 13,3 C 78 % 9 cb 1017,8 hPa 0,0 l/m 4,4 km/h N-NO 22 5 min 316 W/m 6,4 km/h
24.05.2019 07:50 10,4 C 13,9 C 14,5 C 14,3 C 13,2 C 79 % 9 cb 1017,7 hPa 0,0 l/m 4,7 km/h N-NO 22 5 min 302 W/m 8,0 km/h
24.05.2019 07:45 10,2 C 13,9 C 14,5 C 14,3 C 12,7 C 79 % 9 cb 1017,9 hPa 0,0 l/m 3,1 km/h NO 45 5 min 287 W/m 6,4 km/h
24.05.2019 07:40 10,1 C 13,9 C 14,5 C 14,4 C 12,4 C 80 % 9 cb 1017,9 hPa 0,0 l/m 2,2 km/h N-NO 22 5 min 272 W/m 4,8 km/h
24.05.2019 07:35 10,1 C 13,9 C 14,6 C 14,4 C 12,2 C 79 % 9 cb 1018,0 hPa 0,0 l/m 1,4 km/h N-NO 22 5 min 257 W/m 4,8 km/h
24.05.2019 07:30 10,1 C 14,1 C 14,6 C 14,4 C 12,7 C 80 % 9 cb 1018,0 hPa 0,0 l/m 1,4 km/h N-NO 22 5 min 242 W/m 4,8 km/h
24.05.2019 07:25 9,9 C 14,1 C 14,6 C 14,4 C 12,5 C 80 % 9 cb 1018,1 hPa 0,0 l/m 1,9 km/h N-NO 22 5 min 227 W/m 4,8 km/h
24.05.2019 07:20 9,8 C 14,1 C 14,6 C 14,5 C 12,1 C 81 % 9 cb 1018,2 hPa 0,0 l/m 2,1 km/h N-NO 22 5 min 213 W/m 4,8 km/h
24.05.2019 07:15 9,6 C 14,1 C 14,7 C 14,5 C 11,8 C 82 % 9 cb 1018,2 hPa 0,0 l/m 1,3 km/h N-NO 22 5 min 198 W/m 4,8 km/h
24.05.2019 07:10 9,3 C 14,1 C 14,7 C 14,5 C 11,3 C 81 % 9 cb 1018,3 hPa 0,0 l/m 0,9 km/h N-NW 338 5 min 185 W/m 4,8 km/h
24.05.2019 07:05 9,6 C 14,1 C 14,7 C 14,5 C 11,7 C 82 % 9 cb 1018,3 hPa 0,0 l/m 0,5 km/h W-NW 292 5 min 172 W/m 3,2 km/h
24.05.2019 07:00 9,3 C 14,1 C 14,7 C 14,6 C 10,6 C 82 % 9 cb 1018,3 hPa 0,0 l/m 0,0 km/h N 360 5 min 158 W/m 0,0 km/h
24.05.2019 06:55 9,3 C 14,1 C 14,7 C 14,6 C 9,9 C 82 % 9 cb 1018,4 hPa 0,0 l/m 0,0 km/h S-SW 202 5 min 143 W/m 1,6 km/h
24.05.2019 06:50 9,2 C 14,1 C 14,7 C 14,6 C 9,4 C 82 % 9 cb 1018,5 hPa 0,0 l/m 0,8 km/h S-SW 202 5 min 130 W/m 3,2 km/h
24.05.2019 06:45 8,9 C 14,1 C 14,7 C 14,6 C 9,1 C 82 % 9 cb 1018,5 hPa 0,0 l/m 0,1 km/h S-SW 202 5 min 118 W/m 1,6 km/h
24.05.2019 06:40 8,8 C 14,1 C 14,7 C 14,7 C 8,1 C 82 % 9 cb 1018,5 hPa 0,0 l/m 0,0 km/h N 360 5 min 107 W/m 0,0 km/h
24.05.2019 06:35 8,6 C 14,1 C 14,8 C 14,7 C 7,6 C 82 % 9 cb 1018,6 hPa 0,0 l/m 0,0 km/h S-SW 202 5 min 96 W/m 1,6 km/h
24.05.2019 06:30 8,2 C 14,1 C 14,8 C 14,7 C 7,2 C 83 % 9 cb 1018,7 hPa 0,0 l/m 0,0 km/h N 360 5 min 86 W/m 0,0 km/h
24.05.2019 06:25 7,9 C 14,1 C 14,8 C 14,7 C 6,9 C 84 % 9 cb 1018,8 hPa 0,0 l/m 0,0 km/h N 360 5 min 75 W/m 0,0 km/h
24.05.2019 06:20 7,6 C 14,1 C 14,9 C 14,7 C 6,5 C 84 % 9 cb 1018,9 hPa 0,0 l/m 0,0 km/h S-SW 202 5 min 66 W/m 1,6 km/h
24.05.2019 06:15 7,4 C 14,1 C 14,9 C 14,7 C 6,1 C 85 % 9 cb 1019,0 hPa 0,0 l/m 1,0 km/h S-SW 202 5 min 61 W/m 3,2 km/h
24.05.2019 06:10 7,1 C 14,1 C 14,9 C 14,8 C 5,7 C 85 % 9 cb 1019,1 hPa 0,0 l/m 1,9 km/h S-SW 202 5 min 52 W/m 3,2 km/h
24.05.2019 06:05 7,0 C 14,1 C 14,9 C 14,8 C 5,3 C 85 % 9 cb 1019,2 hPa 0,0 l/m 1,8 km/h S-SW 202 5 min 40 W/m 3,2 km/h
24.05.2019 06:00 6,9 C 14,1 C 14,9 C 14,8 C 5,1 C 85 % 9 cb 1019,2 hPa 0,0 l/m 0,4 km/h S-SW 202 0 min 16 W/m 3,2 km/h
24.05.2019 05:55 6,9 C 14,1 C 15,0 C 14,9 C 4,9 C 85 % 9 cb 1019,1 hPa 0,0 l/m 0,5 km/h S-SW 202 0 min 13 W/m 1,6 km/h
24.05.2019 05:50 7,0 C 14,1 C 15,0 C 14,9 C 4,6 C 85 % 9 cb 1019,1 hPa 0,0 l/m 2,2 km/h S-SW 202 0 min 11 W/m 3,2 km/h
24.05.2019 05:45 6,9 C 14,1 C 15,0 C 14,9 C 4,9 C 85 % 9 cb 1019,1 hPa 0,0 l/m 3,1 km/h S-SW 202 0 min 8 W/m 4,8 km/h
24.05.2019 05:40 6,8 C 14,1 C 15,1 C 15,0 C 4,7 C 85 % 9 cb 1019,2 hPa 0,0 l/m 3,1 km/h S-SW 202 0 min 7 W/m 4,8 km/h
24.05.2019 05:35 6,8 C 14,1 C 15,1 C 15,0 C 4,6 C 85 % 9 cb 1019,1 hPa 0,0 l/m 2,7 km/h S-SW 202 0 min 5 W/m 3,2 km/h
24.05.2019 05:30 6,9 C 14,1 C 15,1 C 15,0 C 4,6 C 85 % 9 cb 1019,0 hPa 0,0 l/m 2,8 km/h S-SW 202 0 min 0 W/m 3,2 km/h
24.05.2019 05:25 6,9 C 14,1 C 15,1 C 15,1 C 4,8 C 85 % 9 cb 1019,0 hPa 0,0 l/m 2,6 km/h S-SW 202 0 min 0 W/m 4,8 km/h
24.05.2019 05:20 6,9 C 14,1 C 15,2 C 15,1 C 4,8 C 85 % 9 cb 1018,9 hPa 0,0 l/m 2,8 km/h S-SW 202 0 min 0 W/m 4,8 km/h
24.05.2019 05:15 6,9 C 14,1 C 15,2 C 15,1 C 4,8 C 85 % 8 cb 1019,0 hPa 0,0 l/m 3,0 km/h S-SW 202 0 min 0 W/m 4,8 km/h
24.05.2019 05:10 7,1 C 14,1 C 15,2 C 15,2 C 4,6 C 84 % 8 cb 1019,0 hPa 0,0 l/m 2,8 km/h S-SW 202 0 min 0 W/m 4,8 km/h
24.05.2019 05:05 7,2 C 14,1 C 15,2 C 15,2 C 4,5 C 84 % 8 cb 1019,0 hPa 0,0 l/m 0,2 km/h S-SW 202 0 min 0 W/m 1,6 km/h
24.05.2019 05:00 7,2 C 14,1 C 15,2 C 15,2 C 4,3 C 85 % 8 cb 1019,0 hPa 0,0 l/m 0,5 km/h S-SW 202 0 min 0 W/m 3,2 km/h
24.05.2019 04:55 7,2 C 14,1 C 15,2 C 15,2 C 4,2 C 84 % 8 cb 1018,9 hPa 0,0 l/m 1,4 km/h S-SW 202 0 min 0 W/m 3,2 km/h
24.05.2019 04:50 7,1 C 14,1 C 15,2 C 15,2 C 4,3 C 84 % 8 cb 1019,0 hPa 0,0 l/m 2,1 km/h S-SW 202 0 min 0 W/m 3,2 km/h
24.05.2019 04:45 7,2 C 14,1 C 15,2 C 15,2 C 5,0 C 84 % 8 cb 1019,0 hPa 0,0 l/m 1,3 km/h S-SW 202 0 min 0 W/m 3,2 km/h
24.05.2019 04:40 7,3 C 14,1 C 15,3 C 15,3 C 4,7 C 84 % 8 cb 1019,0 hPa 0,0 l/m 1,7 km/h S-SW 202 0 min 0 W/m 3,2 km/h
24.05.2019 04:35 7,3 C 14,1 C 15,3 C 15,3 C 4,8 C 84 % 8 cb 1019,1 hPa 0,0 l/m 2,7 km/h S-SW 202 0 min 0 W/m 4,8 km/h
24.05.2019 04:30 7,3 C 14,1 C 15,3 C 15,3 C 4,8 C 83 % 8 cb 1019,1 hPa 0,0 l/m 1,8 km/h S-SW 202 0 min 0 W/m 3,2 km/h
24.05.2019 04:25 7,4 C 14,1 C 15,3 C 15,4 C 5,0 C 83 % 8 cb 1019,2 hPa 0,0 l/m 1,6 km/h S-SW 202 0 min 0 W/m 3,2 km/h
24.05.2019 04:20 7,4 C 14,1 C 15,4 C 15,4 C 4,8 C 83 % 8 cb 1019,1 hPa 0,0 l/m 2,0 km/h S-SW 202 0 min 0 W/m 3,2 km/h
24.05.2019 04:15 7,4 C 14,1 C 15,4 C 15,4 C 4,8 C 83 % 8 cb 1019,0 hPa 0,0 l/m 2,6 km/h S-SW 202 0 min 0 W/m 3,2 km/h
24.05.2019 04:10 7,6 C 14,1 C 15,4 C 15,5 C 4,8 C 82 % 8 cb 1019,0 hPa 0,0 l/m 1,8 km/h S-SW 202 0 min 0 W/m 3,2 km/h
24.05.2019 04:05 7,7 C 14,1 C 15,4 C 15,5 C 5,1 C 82 % 8 cb 1019,0 hPa 0,0 l/m 2,3 km/h S-SW 202 0 min 0 W/m 3,2 km/h
24.05.2019 04:00 7,7 C 14,1 C 15,5 C 15,5 C 5,1 C 82 % 8 cb 1018,9 hPa 0,0 l/m 2,5 km/h S-SW 202 0 min 0 W/m 4,8 km/h
24.05.2019 03:55 7,6 C 14,1 C 15,5 C 15,6 C 5,2 C 82 % 8 cb 1019,0 hPa 0,0 l/m 1,7 km/h S-SW 202 0 min 0 W/m 4,8 km/h
24.05.2019 03:50 7,8 C 14,1 C 15,5 C 15,6 C 5,2 C 81 % 8 cb 1018,9 hPa 0,0 l/m 0,7 km/h S-SW 202 0 min 0 W/m 1,6 km/h
24.05.2019 03:45 7,9 C 14,1 C 15,5 C 15,6 C 5,2 C 82 % 8 cb 1018,9 hPa 0,0 l/m 0,9 km/h S-SW 202 0 min 0 W/m 1,6 km/h
24.05.2019 03:40 7,9 C 14,1 C 15,6 C 15,7 C 5,3 C 81 % 8 cb 1019,0 hPa 0,0 l/m 0,5 km/h S-SW 202 0 min 0 W/m 1,6 km/h
24.05.2019 03:35 7,9 C 14,1 C 15,6 C 15,7 C 5,5 C 82 % 8 cb 1019,0 hPa 0,0 l/m 1,4 km/h S-SW 202 0 min 0 W/m 3,2 km/h
24.05.2019 03:30 7,9 C 14,1 C 15,6 C 15,7 C 5,4 C 81 % 8 cb 1019,0 hPa 0,0 l/m 2,5 km/h S-SW 202 0 min 0 W/m 4,8 km/h
24.05.2019 03:25 7,9 C 14,1 C 15,6 C 15,7 C 5,6 C 81 % 8 cb 1019,0 hPa 0,0 l/m 3,2 km/h S-SW 202 0 min 0 W/m 4,8 km/h
24.05.2019 03:20 8,1 C 14,1 C 15,7 C 15,7 C 5,9 C 81 % 8 cb 1019,0 hPa 0,0 l/m 3,2 km/h S-SW 202 0 min 0 W/m 4,8 km/h
24.05.2019 03:15 8,2 C 14,1 C 15,7 C 15,8 C 5,4 C 81 % 8 cb 1018,9 hPa 0,0 l/m 2,2 km/h S-SW 202 0 min 0 W/m 3,2 km/h
24.05.2019 03:10 8,3 C 14,1 C 15,7 C 15,8 C 5,3 C 80 % 8 cb 1018,9 hPa 0,0 l/m 1,8 km/h S-SW 202 0 min 0 W/m 4,8 km/h
24.05.2019 03:05 8,6 C 14,1 C 15,7 C 15,8 C 5,3 C 79 % 8 cb 1018,9 hPa 0,0 l/m 2,4 km/h S-SW 202 0 min 0 W/m 3,2 km/h
24.05.2019 03:00 8,5 C 14,1 C 15,7 C 15,9 C 5,8 C 80 % 8 cb 1018,9 hPa 0,0 l/m 3,3 km/h S-SW 202 0 min 0 W/m 6,4 km/h
24.05.2019 02:55 8,4 C 14,1 C 15,7 C 15,9 C 6,1 C 80 % 8 cb 1018,9 hPa 0,0 l/m 4,9 km/h S-SW 202 0 min 0 W/m 8,0 km/h
24.05.2019 02:50 8,3 C 14,1 C 15,7 C 15,9 C 6,3 C 81 % 8 cb 1019,0 hPa 0,0 l/m 5,6 km/h S-SW 202 0 min 0 W/m 8,0 km/h
24.05.2019 02:45 8,2 C 14,1 C 15,8 C 16,0 C 6,1 C 81 % 8 cb 1019,0 hPa 0,0 l/m 3,8 km/h W 270 0 min 0 W/m 6,4 km/h
24.05.2019 02:40 8,4 C 14,1 C 15,8 C 16,0 C 6,3 C 80 % 8 cb 1019,0 hPa 0,0 l/m 3,1 km/h W 270 0 min 0 W/m 4,8 km/h
24.05.2019 02:35 8,7 C 14,1 C 15,8 C 16,0 C 5,9 C 79 % 8 cb 1018,9 hPa 0,0 l/m 3,3 km/h W 270 0 min 0 W/m 4,8 km/h
24.05.2019 02:30 8,7 C 14,1 C 15,8 C 16,1 C 5,7 C 78 % 8 cb 1019,0 hPa 0,0 l/m 2,7 km/h W 270 0 min 0 W/m 3,2 km/h
24.05.2019 02:25 8,8 C 14,1 C 15,8 C 16,1 C 5,9 C 77 % 8 cb 1019,0 hPa 0,0 l/m 2,3 km/h W 270 0 min 0 W/m 3,2 km/h
24.05.2019 02:20 8,9 C 14,1 C 15,9 C 16,1 C 5,9 C 77 % 8 cb 1018,9 hPa 0,0 l/m 1,7 km/h W 270 0 min 0 W/m 3,2 km/h
24.05.2019 02:15 9,1 C 14,1 C 15,9 C 16,2 C 5,6 C 76 % 8 cb 1018,9 hPa 0,0 l/m 2,0 km/h W 270 0 min 0 W/m 3,2 km/h
24.05.2019 02:10 9,2 C 14,1 C 15,9 C 16,2 C 5,9 C 76 % 8 cb 1018,9 hPa 0,0 l/m 2,5 km/h W 270 0 min 0 W/m 4,8 km/h
24.05.2019 02:05 9,3 C 14,1 C 15,9 C 16,2 C 6,4 C 75 % 8 cb 1018,9 hPa 0,0 l/m 2,4 km/h W 270 0 min 0 W/m 4,8 km/h
24.05.2019 02:00 9,5 C 14,1 C 16,0 C 16,3 C 6,4 C 75 % 8 cb 1018,8 hPa 0,0 l/m 2,6 km/h W 270 0 min 0 W/m 3,2 km/h
24.05.2019 01:55 9,6 C 14,1 C 16,0 C 16,3 C 6,1 C 75 % 8 cb 1018,9 hPa 0,0 l/m 0,7 km/h W 270 0 min 0 W/m 3,2 km/h
24.05.2019 01:50 9,8 C 14,1 C 16,0 C 16,3 C 6,3 C 74 % 8 cb 1018,8 hPa 0,0 l/m 0,4 km/h W 270 0 min 0 W/m 3,2 km/h
24.05.2019 01:45 10,2 C 14,1 C 16,0 C 16,3 C 7,0 C 73 % 8 cb 1018,6 hPa 0,0 l/m 1,7 km/h W 270 0 min 0 W/m 3,2 km/h
24.05.2019 01:40 10,1 C 14,1 C 16,1 C 16,3 C 8,1 C 73 % 8 cb 1018,7 hPa 0,0 l/m 3,9 km/h W 270 0 min 0 W/m 6,4 km/h
24.05.2019 01:35 10,4 C 14,1 C 16,1 C 16,3 C 8,7 C 71 % 8 cb 1018,6 hPa 0,0 l/m 7,0 km/h SW 225 0 min 0 W/m 12,8 km/h
24.05.2019 01:30 10,5 C 14,1 C 16,1 C 16,4 C 9,1 C 70 % 8 cb 1018,5 hPa 0,0 l/m 9,7 km/h S-SW 202 0 min 0 W/m 12,8 km/h
24.05.2019 01:25 10,6 C 14,1 C 16,1 C 16,4 C 9,1 C 70 % 8 cb 1018,5 hPa 0,0 l/m 10,0 km/h S-SW 202 0 min 0 W/m 14,4 km/h
24.05.2019 01:20 10,6 C 14,1 C 16,2 C 16,4 C 9,2 C 70 % 8 cb 1018,5 hPa 0,0 l/m 10,0 km/h S-SW 202 0 min 0 W/m 16,0 km/h
24.05.2019 01:15 10,7 C 14,1 C 16,2 C 16,6 C 9,2 C 70 % 8 cb 1018,4 hPa 0,0 l/m 9,9 km/h S-SW 202 0 min 0 W/m 17,6 km/h
24.05.2019 01:10 10,7 C 14,1 C 16,2 C 16,6 C 9,2 C 70 % 8 cb 1018,6 hPa 0,0 l/m 10,6 km/h S-SW 202 0 min 0 W/m 16,0 km/h
24.05.2019 01:05 10,7 C 14,1 C 16,2 C 16,6 C 9,1 C 70 % 8 cb 1018,5 hPa 0,0 l/m 11,4 km/h S 180 0 min 0 W/m 16,0 km/h
24.05.2019 01:00 10,8 C 14,1 C 16,2 C 16,6 C 9,2 C 70 % 8 cb 1018,5 hPa 0,0 l/m 11,9 km/h S-SW 202 0 min 0 W/m 17,6 km/h
24.05.2019 00:55 10,8 C 14,1 C 16,3 C 16,6 C 9,1 C 70 % 8 cb 1018,5 hPa 0,0 l/m 11,7 km/h S 180 0 min 0 W/m 14,4 km/h
24.05.2019 00:50 10,9 C 14,1 C 16,3 C 16,6 C 9,6 C 69 % 8 cb 1018,4 hPa 0,0 l/m 12,3 km/h S-SW 202 0 min 0 W/m 19,2 km/h
24.05.2019 00:45 10,7 C 14,1 C 16,3 C 16,7 C 9,4 C 70 % 8 cb 1018,4 hPa 0,0 l/m 12,7 km/h S-SW 202 0 min 0 W/m 20,8 km/h
24.05.2019 00:40 10,7 C 14,1 C 16,3 C 16,7 C 9,3 C 70 % 7 cb 1018,6 hPa 0,0 l/m 12,0 km/h S-SW 202 0 min 0 W/m 20,8 km/h
24.05.2019 00:35 10,9 C 14,1 C 16,3 C 16,8 C 9,2 C 70 % 7 cb 1018,5 hPa 0,0 l/m 10,5 km/h S 180 0 min 0 W/m 17,6 km/h
24.05.2019 00:30 11,1 C 14,1 C 16,3 C 16,8 C 9,6 C 69 % 7 cb 1018,4 hPa 0,0 l/m 11,4 km/h S 180 0 min 0 W/m 17,6 km/h
24.05.2019 00:25 11,4 C 14,1 C 16,3 C 16,8 C 10,0 C 68 % 7 cb 1018,3 hPa 0,0 l/m 13,8 km/h S 180 0 min 0 W/m 17,6 km/h
24.05.2019 00:20 11,4 C 14,1 C 16,3 C 16,9 C 10,1 C 67 % 7 cb 1018,2 hPa 0,0 l/m 16,2 km/h S 180 0 min 0 W/m 24,0 km/h
24.05.2019 00:15 11,3 C 14,1 C 16,4 C 16,9 C 9,8 C 68 % 7 cb 1018,4 hPa 0,0 l/m 14,0 km/h S-SO 158 0 min 0 W/m 22,4 km/h
24.05.2019 00:10 11,4 C 13,9 C 16,4 C 16,9 C 9,8 C 68 % 7 cb 1018,4 hPa 0,0 l/m 14,1 km/h S 180 0 min 0 W/m 19,2 km/h
24.05.2019 00:05 11,4 C 13,9 C 16,4 C 16,9 C 10,2 C 67 % 7 cb 1018,4 hPa 0,0 l/m 13,0 km/h S-SW 202 0 min 0 W/m 22,4 km/h
24.05.2019 00:00 11,4 C 13,9 C 16,4 C 16,9 C 10,0 C 67 % 7 cb 1018,5 hPa 0,0 l/m 13,3 km/h S 180 0 min 0 W/m 22,4 km/h
23.05.2019 23:55 11,4 C 13,9 C 16,4 C 16,9 C 9,9 C 67 % 7 cb 1018,5 hPa 0,0 l/m 10,7 km/h S 180 0 min 0 W/m 17,6 km/h
23.05.2019 23:50 11,6 C 13,9 C 16,6 C 17,1 C 10,4 C 67 % 7 cb 1018,4 hPa 0,0 l/m 13,9 km/h S 180 0 min 0 W/m 20,8 km/h
23.05.2019 23:45 11,7 C 13,9 C 16,6 C 17,1 C 10,4 C 66 % 7 cb 1018,3 hPa 0,0 l/m 15,3 km/h S 180 0 min 0 W/m 25,6 km/h
23.05.2019 23:40 12,0 C 13,9 C 16,6 C 17,2 C 10,5 C 65 % 7 cb 1018,3 hPa 0,0 l/m 15,7 km/h S 180 0 min 0 W/m 22,4 km/h
23.05.2019 23:35 12,1 C 13,9 C 16,6 C 17,2 C 10,6 C 65 % 7 cb 1018,3 hPa 0,0 l/m 14,1 km/h S-SW 202 0 min 0 W/m 22,4 km/h
23.05.2019 23:30 12,2 C 13,9 C 16,6 C 17,2 C 10,6 C 65 % 7 cb 1018,2 hPa 0,0 l/m 11,9 km/h S 180 0 min 0 W/m 19,2 km/h
23.05.2019 23:25 11,9 C 13,9 C 16,6 C 17,2 C 10,5 C 66 % 7 cb 1018,2 hPa 0,0 l/m 13,8 km/h S-SW 202 0 min 0 W/m 24,0 km/h
23.05.2019 23:20 12,0 C 13,9 C 16,6 C 17,2 C 10,5 C 66 % 7 cb 1018,2 hPa 0,0 l/m 11,3 km/h S 180 0 min 0 W/m 22,4 km/h
23.05.2019 23:15 12,2 C 13,9 C 16,6 C 17,2 C 10,7 C 65 % 7 cb 1018,0 hPa 0,0 l/m 14,1 km/h S 180 0 min 0 W/m 20,8 km/h
23.05.2019 23:10 12,3 C 13,9 C 16,6 C 17,3 C 10,8 C 65 % 7 cb 1018,1 hPa 0,0 l/m 10,8 km/h S 180 0 min 0 W/m 16,0 km/h
23.05.2019 23:05 12,2 C 13,9 C 16,6 C 17,3 C 10,8 C 65 % 7 cb 1018,0 hPa 0,0 l/m 12,7 km/h S 180 0 min 0 W/m 19,2 km/h
23.05.2019 23:00 12,2 C 13,9 C 16,7 C 17,3 C 10,8 C 65 % 7 cb 1017,9 hPa 0,0 l/m 13,9 km/h S 180 0 min 0 W/m 22,4 km/h
23.05.2019 22:55 12,6 C 13,9 C 16,7 C 17,4 C 10,9 C 64 % 7 cb 1017,9 hPa 0,0 l/m 12,2 km/h S-SW 202 0 min 0 W/m 19,2 km/h
23.05.2019 22:50 12,6 C 13,9 C 16,7 C 17,4 C 11,0 C 64 % 7 cb 1017,8 hPa 0,0 l/m 12,4 km/h S-SW 202 0 min 0 W/m 17,6 km/h
23.05.2019 22:45 12,7 C 13,9 C 16,7 C 17,5 C 11,2 C 64 % 7 cb 1017,8 hPa 0,0 l/m 10,9 km/h S-SW 202 0 min 0 W/m 16,0 km/h
23.05.2019 22:40 13,1 C 13,9 C 16,7 C 17,5 C 11,3 C 63 % 7 cb 1017,7 hPa 0,0 l/m 10,5 km/h S 180 0 min 0 W/m 14,4 km/h
23.05.2019 22:35 13,1 C 13,9 C 16,8 C 17,5 C 11,5 C 62 % 7 cb 1017,6 hPa 0,0 l/m 9,9 km/h S-SW 202 0 min 0 W/m 20,8 km/h
23.05.2019 22:30 13,1 C 13,9 C 16,8 C 17,6 C 11,5 C 63 % 7 cb 1017,7 hPa 0,0 l/m 13,2 km/h S 180 0 min 0 W/m 22,4 km/h
23.05.2019 22:25 13,0 C 13,9 C 16,8 C 17,6 C 11,7 C 63 % 7 cb 1017,6 hPa 0,0 l/m 12,1 km/h S-SW 202 0 min 0 W/m 19,2 km/h
23.05.2019 22:20 13,1 C 13,9 C 16,8 C 17,7 C 11,7 C 63 % 7 cb 1017,6 hPa 0,0 l/m 12,4 km/h S-SW 202 0 min 0 W/m 20,8 km/h
23.05.2019 22:15 13,3 C 13,8 C 16,8 C 17,7 C 11,8 C 62 % 7 cb 1017,4 hPa 0,0 l/m 13,6 km/h S 180 0 min 0 W/m 27,2 km/h
23.05.2019 22:10 13,2 C 13,8 C 16,9 C 17,7 C 11,7 C 63 % 7 cb 1017,4 hPa 0,0 l/m 10,9 km/h S-SW 202 0 min 0 W/m 20,8 km/h
23.05.2019 22:05 12,9 C 13,8 C 16,9 C 17,8 C 11,6 C 64 % 7 cb 1017,5 hPa 0,0 l/m 13,3 km/h S-SW 202 0 min 0 W/m 24,0 km/h
23.05.2019 22:00 12,9 C 13,8 C 16,9 C 17,8 C 11,5 C 65 % 7 cb 1017,4 hPa 0,0 l/m 14,3 km/h S-SW 202 0 min 0 W/m 19,2 km/h
23.05.2019 21:55 13,1 C 13,8 C 16,9 C 17,8 C 11,6 C 64 % 7 cb 1017,4 hPa 0,0 l/m 12,3 km/h S-SW 202 0 min 0 W/m 24,0 km/h
23.05.2019 21:50 13,1 C 13,8 C 16,9 C 17,8 C 11,4 C 64 % 7 cb 1017,4 hPa 0,0 l/m 11,5 km/h S 180 0 min 0 W/m 19,2 km/h
23.05.2019 21:45 13,4 C 13,8 C 16,9 C 17,8 C 11,8 C 63 % 7 cb 1017,2 hPa 0,0 l/m 11,9 km/h S-SW 202 0 min 0 W/m 22,4 km/h
23.05.2019 21:40 13,7 C 13,8 C 16,9 C 17,9 C 12,0 C 62 % 7 cb 1017,1 hPa 0,0 l/m 12,8 km/h S 180 0 min 0 W/m 20,8 km/h
23.05.2019 21:35 13,8 C 13,7 C 16,9 C 17,9 C 12,2 C 62 % 7 cb 1017,0 hPa 0,0 l/m 14,4 km/h S-SW 202 0 min 0 W/m 24,0 km/h
23.05.2019 21:30 13,7 C 13,7 C 16,9 C 17,9 C 12,2 C 63 % 7 cb 1017,0 hPa 0,0 l/m 14,1 km/h S-SW 202 0 min 0 W/m 20,8 km/h
23.05.2019 21:25 13,7 C 13,7 C 16,9 C 18,1 C 12,1 C 63 % 7 cb 1017,0 hPa 0,0 l/m 13,9 km/h S 180 0 min 0 W/m 24,0 km/h
23.05.2019 21:20 13,5 C 13,7 C 16,9 C 18,1 C 11,5 C 64 % 7 cb 1017,0 hPa 0,0 l/m 11,8 km/h S-SO 158 0 min 0 W/m 20,8 km/h
23.05.2019 21:15 13,7 C 13,7 C 16,9 C 18,1 C 11,9 C 63 % 7 cb 1016,9 hPa 0,0 l/m 12,8 km/h S 180 0 min 0 W/m 20,8 km/h
23.05.2019 21:10 14,0 C 13,7 C 16,9 C 18,1 C 12,4 C 62 % 7 cb 1016,8 hPa 0,0 l/m 11,7 km/h S 180 0 min 0 W/m 19,2 km/h
23.05.2019 21:05 14,4 C 13,7 C 16,9 C 18,1 C 12,7 C 61 % 7 cb 1016,6 hPa 0,0 l/m 12,6 km/h S 180 0 min 0 W/m 20,8 km/h
23.05.2019 21:00 14,4 C 13,6 C 16,9 C 18,1 C 12,6 C 61 % 7 cb 1016,5 hPa 0,0 l/m 11,2 km/h S 180 0 min 1 W/m 19,2 km/h
23.05.2019 20:55 14,6 C 13,6 C 16,9 C 18,2 C 12,6 C 60 % 7 cb 1016,4 hPa 0,0 l/m 10,2 km/h S 180 0 min 5 W/m 17,6 km/h
23.05.2019 20:50 14,8 C 13,6 C 17,1 C 18,2 C 12,7 C 60 % 7 cb 1016,3 hPa 0,0 l/m 11,7 km/h S 180 0 min 6 W/m 20,8 km/h
23.05.2019 20:45 15,1 C 13,6 C 17,1 C 18,2 C 13,1 C 59 % 7 cb 1016,2 hPa 0,0 l/m 10,1 km/h S-SO 158 0 min 10 W/m 19,2 km/h
23.05.2019 20:40 15,3 C 13,6 C 17,1 C 18,3 C 13,5 C 58 % 7 cb 1016,0 hPa 0,0 l/m 9,8 km/h S-SO 158 0 min 12 W/m 16,0 km/h
23.05.2019 20:35 15,6 C 13,6 C 17,1 C 18,3 C 13,5 C 58 % 6 cb 1015,8 hPa 0,0 l/m 8,7 km/h SO 135 0 min 13 W/m 16,0 km/h
23.05.2019 20:30 15,7 C 13,6 C 17,1 C 18,3 C 13,7 C 57 % 6 cb 1015,6 hPa 0,0 l/m 6,9 km/h SO 135 0 min 17 W/m 12,8 km/h
23.05.2019 20:25 15,9 C 13,6 C 17,1 C 18,4 C 13,7 C 57 % 6 cb 1015,6 hPa 0,0 l/m 8,9 km/h SO 135 0 min 24 W/m 17,6 km/h
23.05.2019 20:20 16,2 C 13,6 C 17,1 C 18,4 C 13,7 C 56 % 6 cb 1015,5 hPa 0,0 l/m 7,0 km/h S 180 0 min 28 W/m 11,2 km/h
23.05.2019 20:15 16,3 C 13,6 C 17,1 C 18,4 C 13,6 C 57 % 6 cb 1015,3 hPa 0,0 l/m 5,8 km/h S 180 0 min 43 W/m 9,6 km/h
23.05.2019 20:10 16,3 C 13,6 C 17,1 C 18,5 C 13,5 C 56 % 6 cb 1015,3 hPa 0,0 l/m 2,1 km/h O-SO 112 5 min 56 W/m 4,8 km/h
23.05.2019 20:05 16,6 C 13,6 C 17,1 C 18,5 C 14,3 C 55 % 6 cb 1015,2 hPa 0,0 l/m 6,8 km/h O 90 5 min 65 W/m 12,8 km/h
23.05.2019 20:00 16,6 C 13,5 C 17,1 C 18,5 C 14,5 C 54 % 6 cb 1015,0 hPa 0,0 l/m 9,3 km/h O 90 5 min 73 W/m 17,6 km/h
23.05.2019 19:55 16,7 C 13,5 C 17,1 C 18,6 C 14,8 C 53 % 6 cb 1014,8 hPa 0,0 l/m 11,3 km/h O 90 5 min 84 W/m 17,6 km/h
23.05.2019 19:50 16,8 C 13,5 C 17,1 C 18,6 C 14,8 C 53 % 6 cb 1014,8 hPa 0,0 l/m 10,7 km/h O-SO 112 5 min 92 W/m 20,8 km/h
23.05.2019 19:45 16,8 C 13,5 C 17,1 C 18,6 C 15,0 C 52 % 6 cb 1014,8 hPa 0,0 l/m 14,4 km/h O 90 5 min 98 W/m 22,4 km/h
23.05.2019 19:40 16,9 C 13,5 C 17,1 C 18,7 C 15,1 C 53 % 6 cb 1014,8 hPa 0,0 l/m 13,1 km/h O 90 5 min 105 W/m 22,4 km/h
23.05.2019 19:35 17,0 C 13,5 C 17,1 C 18,7 C 15,1 C 53 % 6 cb 1014,7 hPa 0,0 l/m 10,6 km/h O 90 5 min 116 W/m 16,0 km/h
23.05.2019 19:30 17,1 C 13,4 C 17,1 C 18,7 C 15,2 C 53 % 6 cb 1014,6 hPa 0,0 l/m 13,0 km/h O 90 5 min 119 W/m 20,8 km/h
23.05.2019 19:25 17,2 C 13,4 C 17,1 C 18,7 C 15,2 C 52 % 6 cb 1014,6 hPa 0,0 l/m 10,4 km/h O-NO 68 5 min 129 W/m 17,6 km/h
23.05.2019 19:20 17,3 C 13,4 C 17,1 C 18,8 C 15,6 C 50 % 6 cb 1014,5 hPa 0,0 l/m 11,3 km/h O 90 5 min 151 W/m 19,2 km/h
23.05.2019 19:15 17,4 C 13,4 C 17,1 C 18,8 C 15,7 C 49 % 6 cb 1014,4 hPa 0,0 l/m 13,1 km/h O 90 5 min 166 W/m 19,2 km/h
23.05.2019 19:10 17,6 C 13,4 C 17,1 C 18,8 C 15,7 C 48 % 6 cb 1014,4 hPa 0,0 l/m 11,3 km/h O-NO 68 5 min 177 W/m 24,0 km/h
23.05.2019 19:05 17,7 C 13,4 C 16,9 C 18,8 C 16,0 C 47 % 6 cb 1014,4 hPa 0,0 l/m 11,9 km/h O-NO 68 5 min 195 W/m 20,8 km/h
23.05.2019 19:00 17,8 C 13,3 C 16,9 C 18,8 C 16,1 C 47 % 6 cb 1014,4 hPa 0,0 l/m 14,2 km/h O-NO 68 5 min 191 W/m 20,8 km/h
23.05.2019 18:55 17,9 C 13,3 C 16,9 C 18,8 C 16,0 C 46 % 6 cb 1014,3 hPa 0,0 l/m 9,5 km/h O 90 0 min 65 W/m 16,0 km/h
23.05.2019 18:50 18,1 C 13,3 C 16,9 C 18,8 C 16,4 C 44 % 6 cb 1014,2 hPa 0,0 l/m 11,3 km/h O-NO 68 0 min 129 W/m 19,2 km/h
23.05.2019 18:45 18,2 C 13,3 C 16,9 C 18,8 C 16,4 C 44 % 6 cb 1014,1 hPa 0,0 l/m 10,7 km/h O-NO 68 5 min 181 W/m 17,6 km/h
23.05.2019 18:40 18,3 C 13,3 C 16,9 C 18,8 C 16,6 C 44 % 6 cb 1014,0 hPa 0,0 l/m 9,5 km/h O 90 5 min 225 W/m 17,6 km/h
23.05.2019 18:35 18,6 C 13,2 C 16,9 C 18,8 C 16,8 C 41 % 6 cb 1013,9 hPa 0,0 l/m 13,6 km/h O 90 5 min 206 W/m 22,4 km/h
23.05.2019 18:30 18,7 C 13,2 C 16,9 C 18,8 C 16,8 C 41 % 6 cb 1013,8 hPa 0,0 l/m 9,8 km/h O 90 5 min 313 W/m 16,0 km/h
23.05.2019 18:25 18,6 C 13,2 C 16,9 C 18,8 C 16,9 C 39 % 6 cb 1013,9 hPa 0,0 l/m 8,7 km/h O 90 5 min 318 W/m 16,0 km/h
23.05.2019 18:20 18,8 C 13,2 C 16,9 C 18,8 C 17,1 C 40 % 6 cb 1013,8 hPa 0,0 l/m 5,5 km/h O 90 5 min 329 W/m 16,0 km/h
23.05.2019 18:15 18,8 C 13,2 C 16,8 C 18,8 C 17,2 C 40 % 6 cb 1013,9 hPa 0,0 l/m 5,8 km/h O 90 5 min 325 W/m 11,2 km/h
23.05.2019 18:10 18,9 C 13,2 C 16,8 C 18,8 C 17,7 C 37 % 6 cb 1013,8 hPa 0,0 l/m 5,4 km/h O-NO 68 5 min 325 W/m 12,8 km/h
23.05.2019 18:05 19,2 C 13,2 C 16,8 C 18,8 C 17,7 C 39 % 6 cb 1013,8 hPa 0,0 l/m 12,9 km/h O 90 5 min 326 W/m 19,2 km/h
23.05.2019 18:00 19,0 C 13,2 C 16,7 C 18,8 C 17,6 C 39 % 6 cb 1013,9 hPa 0,0 l/m 5,6 km/h O 90 5 min 331 W/m 12,8 km/h
23.05.2019 17:55 19,2 C 13,2 C 16,7 C 18,8 C 18,1 C 39 % 6 cb 1013,9 hPa 0,0 l/m 8,2 km/h O-NO 68 5 min 398 W/m 16,0 km/h
23.05.2019 17:50 19,3 C 13,2 C 16,6 C 18,8 C 18,2 C 38 % 6 cb 1014,4 hPa 0,0 l/m 7,6 km/h O 90 5 min 433 W/m 14,4 km/h
23.05.2019 17:45 19,4 C 13,2 C 16,6 C 18,8 C 18,4 C 39 % 6 cb 1013,8 hPa 0,0 l/m 12,2 km/h O-NO 68 5 min 442 W/m 17,6 km/h
23.05.2019 17:40 19,3 C 13,2 C 16,6 C 18,8 C 18,4 C 40 % 6 cb 1013,9 hPa 0,0 l/m 11,6 km/h O-NO 68 5 min 456 W/m 20,8 km/h
23.05.2019 17:35 19,2 C 13,2 C 16,6 C 18,8 C 18,6 C 38 % 6 cb 1014,0 hPa 0,0 l/m 10,6 km/h NO 45 5 min 467 W/m 17,6 km/h
23.05.2019 17:30 19,4 C 13,2 C 16,6 C 18,8 C 19,3 C 38 % 6 cb 1013,9 hPa 0,0 l/m 10,5 km/h O-NO 68 5 min 488 W/m 19,2 km/h
23.05.2019 17:25 19,6 C 13,1 C 16,4 C 18,7 C 21,2 C 41 % 6 cb 1013,8 hPa 0,0 l/m 7,1 km/h NO 45 5 min 501 W/m 14,4 km/h
23.05.2019 17:20 19,5 C 13,1 C 16,4 C 18,7 C 27,2 C 37 % 6 cb 1013,9 hPa 0,0 l/m 7,3 km/h NO 45 5 min 500 W/m 14,4 km/h
23.05.2019 17:15 19,3 C 13,1 C 16,3 C 18,7 C 31,8 C 38 % 6 cb 1013,8 hPa 0,0 l/m 6,7 km/h NO 45 5 min 514 W/m 12,8 km/h
23.05.2019 17:10 19,4 C 13,1 C 16,3 C 18,6 C 32,5 C 39 % 6 cb 1013,9 hPa 0,0 l/m 4,9 km/h O 90 5 min 533 W/m 14,4 km/h
23.05.2019 17:05 19,6 C 13,1 C 16,3 C 18,6 C 31,8 C 39 % 6 cb 1013,8 hPa 0,0 l/m 10,3 km/h O-NO 68 5 min 519 W/m 14,4 km/h
23.05.2019 17:00 19,5 C 13,1 C 16,3 C 18,5 C 31,7 C 40 % 6 cb 1013,9 hPa 0,0 l/m 7,7 km/h O-NO 68 5 min 535 W/m 14,4 km/h
23.05.2019 16:55 19,5 C 13,1 C 16,2 C 18,5 C 32,6 C 38 % 6 cb 1014,0 hPa 0,0 l/m 10,7 km/h NO 45 5 min 548 W/m 19,2 km/h
23.05.2019 16:50 19,3 C 13,0 C 16,2 C 18,4 C 33,0 C 40 % 6 cb 1014,1 hPa 0,0 l/m 7,1 km/h O 90 5 min 548 W/m 14,4 km/h
23.05.2019 16:45 19,5 C 13,0 C 16,1 C 18,4 C 31,3 C 41 % 6 cb 1014,0 hPa 0,0 l/m 11,5 km/h O-NO 68 5 min 550 W/m 16,0 km/h
23.05.2019 16:40 19,4 C 13,0 C 16,1 C 18,3 C 30,7 C 40 % 6 cb 1014,0 hPa 0,0 l/m 14,2 km/h O 90 5 min 565 W/m 22,4 km/h
23.05.2019 16:35 19,8 C 13,0 C 16,0 C 18,3 C 32,3 C 38 % 6 cb 1014,0 hPa 0,0 l/m 9,1 km/h O-NO 68 5 min 614 W/m 22,4 km/h
23.05.2019 16:30 19,6 C 13,0 C 16,0 C 18,2 C 31,9 C 39 % 6 cb 1014,1 hPa 0,0 l/m 11,3 km/h O-NO 68 5 min 623 W/m 19,2 km/h
23.05.2019 16:25 19,4 C 13,0 C 15,9 C 18,1 C 31,9 C 41 % 6 cb 1014,1 hPa 0,0 l/m 6,6 km/h NO 45 5 min 655 W/m 16,0 km/h
23.05.2019 16:20 19,3 C 13,0 C 15,8 C 18,1 C 30,9 C 40 % 6 cb 1014,2 hPa 0,0 l/m 10,2 km/h NO 45 5 min 619 W/m 16,0 km/h
23.05.2019 16:15 19,4 C 13,0 C 15,8 C 18,1 C 32,0 C 39 % 6 cb 1014,1 hPa 0,0 l/m 10,5 km/h O-NO 68 5 min 653 W/m 17,6 km/h
23.05.2019 16:10 19,5 C 12,9 C 15,7 C 18,1 C 31,6 C 40 % 5 cb 1014,2 hPa 0,0 l/m 13,9 km/h O-NO 68 5 min 663 W/m 22,4 km/h
23.05.2019 16:05 19,6 C 12,9 C 15,7 C 17,9 C 31,1 C 39 % 5 cb 1014,2 hPa 0,0 l/m 16,5 km/h O-NO 68 5 min 665 W/m 25,6 km/h
23.05.2019 16:00 19,6 C 12,9 C 15,7 C 17,8 C 31,8 C 40 % 5 cb 1014,2 hPa 0,0 l/m 13,5 km/h NO 45 5 min 697 W/m 20,8 km/h
23.05.2019 15:55 19,8 C 12,9 C 15,7 C 17,8 C 34,1 C 43 % 5 cb 1014,2 hPa 0,0 l/m 6,8 km/h O-NO 68 5 min 723 W/m 20,8 km/h
23.05.2019 15:50 19,7 C 12,9 C 15,6 C 17,8 C 35,3 C 40 % 5 cb 1014,3 hPa 0,0 l/m 3,0 km/h O-SO 112 5 min 723 W/m 11,2 km/h
23.05.2019 15:45 19,7 C 12,9 C 15,5 C 17,7 C 33,6 C 38 % 5 cb 1014,3 hPa 0,0 l/m 10,9 km/h O 90 5 min 731 W/m 17,6 km/h
23.05.2019 15:40 19,7 C 12,9 C 15,5 C 17,6 C 33,7 C 46 % 5 cb 1014,3 hPa 0,0 l/m 8,8 km/h O 90 5 min 747 W/m 16,0 km/h
23.05.2019 15:35 19,3 C 12,9 C 15,4 C 17,5 C 31,7 C 39 % 5 cb 1014,6 hPa 0,0 l/m 8,8 km/h N 360 5 min 758 W/m 17,6 km/h
23.05.2019 15:30 19,7 C 12,9 C 15,3 C 17,4 C 33,7 C 41 % 5 cb 1014,6 hPa 0,0 l/m 12,0 km/h NO 45 5 min 768 W/m 22,4 km/h
23.05.2019 15:25 19,5 C 12,9 C 15,3 C 17,4 C 33,7 C 40 % 5 cb 1014,6 hPa 0,0 l/m 7,5 km/h O-SO 112 5 min 776 W/m 17,6 km/h
23.05.2019 15:20 19,4 C 12,9 C 15,2 C 17,3 C 33,7 C 38 % 5 cb 1014,6 hPa 0,0 l/m 7,7 km/h O-NO 68 5 min 785 W/m 17,6 km/h
23.05.2019 15:15 19,4 C 12,9 C 15,2 C 17,2 C 33,2 C 44 % 5 cb 1014,7 hPa 0,0 l/m 8,0 km/h O-NO 68 5 min 789 W/m 14,4 km/h
23.05.2019 15:10 19,6 C 12,8 C 15,2 C 17,2 C 33,6 C 44 % 5 cb 1014,6 hPa 0,0 l/m 11,0 km/h O-NO 68 5 min 792 W/m 19,2 km/h
23.05.2019 15:05 19,3 C 12,8 C 15,1 C 17,1 C 34,1 C 39 % 5 cb 1014,7 hPa 0,0 l/m 2,9 km/h O 90 5 min 810 W/m 9,6 km/h
23.05.2019 15:00 19,2 C 12,8 C 15,1 C 16,9 C 33,0 C 44 % 5 cb 1014,9 hPa 0,0 l/m 10,2 km/h O 90 5 min 811 W/m 19,2 km/h
23.05.2019 14:55 18,4 C 12,8 C 15,0 C 16,9 C 33,1 C 40 % 5 cb 1015,2 hPa 0,0 l/m 3,8 km/h N-NO 22 5 min 821 W/m 12,8 km/h
23.05.2019 14:50 18,6 C 12,8 C 14,9 C 16,9 C 32,1 C 39 % 5 cb 1015,1 hPa 0,0 l/m 8,8 km/h N-NO 22 5 min 816 W/m 14,4 km/h
23.05.2019 14:45 19,1 C 12,8 C 14,9 C 16,8 C 31,8 C 44 % 5 cb 1015,0 hPa 0,0 l/m 12,4 km/h NO 45 5 min 832 W/m 20,8 km/h
23.05.2019 14:40 18,8 C 12,8 C 14,8 C 16,7 C 32,6 C 47 % 5 cb 1015,2 hPa 0,0 l/m 7,5 km/h N 360 5 min 847 W/m 17,6 km/h
23.05.2019 14:35 18,7 C 12,8 C 14,8 C 16,6 C 30,8 C 41 % 5 cb 1015,3 hPa 0,0 l/m 9,4 km/h N 360 5 min 850 W/m 19,2 km/h
23.05.2019 14:30 18,8 C 12,8 C 14,7 C 16,6 C 32,4 C 41 % 5 cb 1015,3 hPa 0,0 l/m 11,0 km/h O-NO 68 5 min 858 W/m 19,2 km/h
23.05.2019 14:25 19,1 C 12,8 C 14,7 C 16,4 C 31,8 C 42 % 5 cb 1015,3 hPa 0,0 l/m 13,5 km/h O-NO 68 5 min 865 W/m 20,8 km/h
23.05.2019 14:20 18,8 C 12,8 C 14,7 C 16,3 C 31,9 C 41 % 5 cb 1015,3 hPa 0,0 l/m 8,1 km/h N-NO 22 5 min 881 W/m 14,4 km/h
23.05.2019 14:15 19,1 C 12,8 C 14,6 C 16,3 C 33,3 C 42 % 5 cb 1015,3 hPa 0,0 l/m 4,5 km/h SO 135 5 min 891 W/m 11,2 km/h
23.05.2019 14:10 19,1 C 12,8 C 14,6 C 16,2 C 33,1 C 42 % 5 cb 1015,3 hPa 0,0 l/m 5,3 km/h S-SW 202 5 min 889 W/m 9,6 km/h
23.05.2019 14:05 18,7 C 12,8 C 14,5 C 16,1 C 32,3 C 43 % 5 cb 1015,5 hPa 0,0 l/m 7,4 km/h O-SO 112 5 min 893 W/m 14,4 km/h
23.05.2019 14:00 18,8 C 12,8 C 14,5 C 16,0 C 32,5 C 43 % 5 cb 1015,5 hPa 0,0 l/m 10,1 km/h O-NO 68 5 min 897 W/m 17,6 km/h
23.05.2019 13:55 18,7 C 12,8 C 14,4 C 15,9 C 33,1 C 41 % 5 cb 1015,5 hPa 0,0 l/m 4,2 km/h O-SO 112 5 min 892 W/m 9,6 km/h
23.05.2019 13:50 18,1 C 12,8 C 14,4 C 15,8 C 32,1 C 43 % 5 cb 1015,8 hPa 0,0 l/m 5,0 km/h O-NO 68 5 min 901 W/m 11,2 km/h
23.05.2019 13:45 18,4 C 12,8 C 14,3 C 15,8 C 31,9 C 43 % 5 cb 1015,8 hPa 0,0 l/m 9,5 km/h SO 135 5 min 914 W/m 20,8 km/h
23.05.2019 13:40 18,4 C 12,8 C 14,3 C 15,7 C 30,6 C 46 % 5 cb 1015,8 hPa 0,0 l/m 13,0 km/h NO 45 5 min 925 W/m 20,8 km/h
23.05.2019 13:35 18,1 C 12,8 C 14,2 C 15,7 C 31,1 C 54 % 5 cb 1015,9 hPa 0,0 l/m 5,9 km/h O-NO 68 5 min 926 W/m 12,8 km/h
23.05.2019 13:30 17,7 C 12,8 C 14,2 C 15,6 C 29,1 C 46 % 5 cb 1016,1 hPa 0,0 l/m 7,6 km/h N 360 5 min 921 W/m 12,8 km/h
23.05.2019 13:25 17,7 C 12,8 C 14,1 C 15,5 C 30,5 C 47 % 5 cb 1016,1 hPa 0,0 l/m 9,7 km/h NO 45 5 min 917 W/m 17,6 km/h
23.05.2019 13:20 18,1 C 12,8 C 14,1 C 15,4 C 30,8 C 48 % 5 cb 1016,0 hPa 0,0 l/m 10,1 km/h NO 45 5 min 916 W/m 19,2 km/h
23.05.2019 13:15 17,9 C 12,8 C 14,1 C 15,3 C 30,1 C 49 % 5 cb 1016,3 hPa 0,0 l/m 12,3 km/h O-NO 68 5 min 915 W/m 20,8 km/h
23.05.2019 13:10 17,9 C 12,8 C 14,1 C 15,2 C 30,4 C 50 % 5 cb 1016,2 hPa 0,0 l/m 11,7 km/h NO 45 5 min 912 W/m 19,2 km/h
23.05.2019 13:05 17,3 C 12,8 C 13,9 C 15,2 C 30,2 C 51 % 5 cb 1016,5 hPa 0,0 l/m 5,4 km/h NO 45 5 min 910 W/m 14,4 km/h
23.05.2019 13:00 17,3 C 12,8 C 13,9 C 15,1 C 27,8 C 49 % 5 cb 1016,5 hPa 0,0 l/m 9,4 km/h N-NO 22 5 min 911 W/m 17,6 km/h
23.05.2019 12:55 17,3 C 12,8 C 13,9 C 15,1 C 28,8 C 47 % 5 cb 1016,5 hPa 0,0 l/m 5,7 km/h N-NO 22 5 min 908 W/m 14,4 km/h
23.05.2019 12:50 17,4 C 12,8 C 13,9 C 15,0 C 29,2 C 46 % 5 cb 1016,6 hPa 0,0 l/m 9,3 km/h O 90 5 min 900 W/m 17,6 km/h
23.05.2019 12:45 17,3 C 12,8 C 13,9 C 14,9 C 28,9 C 51 % 5 cb 1016,6 hPa 0,0 l/m 9,2 km/h O 90 5 min 899 W/m 14,4 km/h
23.05.2019 12:40 17,4 C 12,8 C 13,8 C 14,8 C 29,1 C 51 % 5 cb 1016,6 hPa 0,0 l/m 12,1 km/h O 90 5 min 899 W/m 17,6 km/h
23.05.2019 12:35 17,4 C 12,8 C 13,8 C 14,7 C 29,3 C 54 % 5 cb 1016,8 hPa 0,0 l/m 7,8 km/h O 90 5 min 901 W/m 14,4 km/h
23.05.2019 12:30 17,4 C 12,8 C 13,7 C 14,7 C 27,8 C 55 % 5 cb 1016,8 hPa 0,0 l/m 12,6 km/h O-NO 68 5 min 904 W/m 22,4 km/h
23.05.2019 12:25 17,2 C 12,8 C 13,7 C 14,7 C 27,0 C 55 % 5 cb 1017,0 hPa 0,0 l/m 10,1 km/h O 90 5 min 903 W/m 20,8 km/h
23.05.2019 12:20 17,1 C 12,8 C 13,7 C 14,6 C 27,1 C 52 % 4 cb 1017,1 hPa 0,0 l/m 9,5 km/h O-NO 68 5 min 897 W/m 17,6 km/h
23.05.2019 12:15 16,8 C 12,8 C 13,6 C 14,5 C 27,0 C 54 % 4 cb 1017,2 hPa 0,0 l/m 9,5 km/h NO 45 5 min 888 W/m 14,4 km/h
23.05.2019 12:10 16,7 C 12,8 C 13,6 C 14,4 C 27,2 C 54 % 4 cb 1017,2 hPa 0,0 l/m 7,4 km/h O-NO 68 5 min 879 W/m 17,6 km/h
23.05.2019 12:05 16,7 C 12,8 C 13,6 C 14,4 C 26,8 C 56 % 4 cb 1017,3 hPa 0,0 l/m 11,9 km/h O 90 5 min 875 W/m 16,0 km/h
23.05.2019 12:00 16,6 C 12,8 C 13,6 C 14,3 C 26,4 C 55 % 4 cb 1017,4 hPa 0,0 l/m 6,3 km/h O-NO 68 5 min 875 W/m 14,4 km/h
23.05.2019 11:55 16,1 C 12,8 C 13,6 C 14,2 C 24,6 C 54 % 4 cb 1017,4 hPa 0,0 l/m 7,9 km/h N 360 5 min 877 W/m 14,4 km/h
23.05.2019 11:50 16,2 C 12,8 C 13,6 C 14,2 C 24,3 C 56 % 4 cb 1017,5 hPa 0,0 l/m 5,8 km/h N 360 5 min 883 W/m 11,2 km/h
23.05.2019 11:45 15,9 C 12,8 C 13,6 C 14,1 C 23,4 C 56 % 4 cb 1017,6 hPa 0,0 l/m 8,2 km/h N 360 5 min 875 W/m 14,4 km/h
23.05.2019 11:40 15,9 C 12,8 C 13,5 C 14,1 C 25,0 C 58 % 4 cb 1017,7 hPa 0,0 l/m 9,3 km/h N 360 5 min 873 W/m 14,4 km/h
23.05.2019 11:35 16,0 C 12,8 C 13,5 C 14,1 C 25,8 C 58 % 4 cb 1017,7 hPa 0,0 l/m 7,4 km/h O 90 5 min 863 W/m 16,0 km/h
23.05.2019 11:30 15,7 C 12,8 C 13,5 C 13,9 C 24,7 C 61 % 4 cb 1017,9 hPa 0,0 l/m 9,3 km/h O 90 5 min 857 W/m 16,0 km/h
23.05.2019 11:25 15,7 C 12,8 C 13,5 C 13,9 C 24,5 C 63 % 4 cb 1018,0 hPa 0,0 l/m 6,2 km/h O 90 5 min 842 W/m 12,8 km/h
23.05.2019 11:20 15,2 C 12,8 C 13,5 C 13,9 C 23,1 C 65 % 4 cb 1018,2 hPa 0,0 l/m 5,5 km/h N-NO 22 5 min 824 W/m 8,0 km/h
23.05.2019 11:15 14,9 C 12,8 C 13,4 C 13,9 C 22,1 C 64 % 4 cb 1018,3 hPa 0,0 l/m 6,9 km/h N 360 5 min 807 W/m 12,8 km/h
23.05.2019 11:10 15,4 C 12,8 C 13,4 C 13,8 C 22,4 C 64 % 4 cb 1018,1 hPa 0,0 l/m 6,5 km/h N-NO 22 5 min 803 W/m 14,4 km/h
23.05.2019 11:05 15,3 C 12,8 C 13,4 C 13,8 C 22,4 C 64 % 4 cb 1018,2 hPa 0,0 l/m 4,8 km/h O-NO 68 5 min 812 W/m 9,6 km/h
23.05.2019 11:00 15,2 C 12,8 C 13,4 C 13,7 C 21,3 C 66 % 4 cb 1018,4 hPa 0,0 l/m 5,2 km/h NO 45 5 min 819 W/m 11,2 km/h
23.05.2019 10:55 14,6 C 12,8 C 13,4 C 13,7 C 20,1 C 66 % 4 cb 1018,6 hPa 0,0 l/m 4,8 km/h N 360 5 min 815 W/m 9,6 km/h
23.05.2019 10:50 14,4 C 12,8 C 13,4 C 13,6 C 20,3 C 69 % 4 cb 1018,8 hPa 0,0 l/m 7,0 km/h N 360 5 min 802 W/m 14,4 km/h
23.05.2019 10:45 14,4 C 12,8 C 13,3 C 13,6 C 19,1 C 71 % 4 cb 1018,8 hPa 0,0 l/m 7,3 km/h N 360 5 min 769 W/m 11,2 km/h
23.05.2019 10:40 14,3 C 12,8 C 13,3 C 13,6 C 19,8 C 69 % 4 cb 1018,9 hPa 0,0 l/m 6,9 km/h O-NO 68 5 min 763 W/m 12,8 km/h
23.05.2019 10:35 14,6 C 12,8 C 13,3 C 13,6 C 19,4 C 70 % 4 cb 1018,9 hPa 0,0 l/m 4,4 km/h S-SO 158 5 min 744 W/m 11,2 km/h
23.05.2019 10:30 14,3 C 12,8 C 13,3 C 13,6 C 19,8 C 71 % 4 cb 1019,0 hPa 0,0 l/m 5,7 km/h O-NO 68 5 min 742 W/m 9,6 km/h
23.05.2019 10:25 13,7 C 12,8 C 13,3 C 13,6 C 18,2 C 73 % 4 cb 1019,2 hPa 0,0 l/m 5,6 km/h N 360 5 min 733 W/m 12,8 km/h
23.05.2019 10:20 13,3 C 12,8 C 13,3 C 13,5 C 17,6 C 73 % 4 cb 1019,4 hPa 0,0 l/m 5,1 km/h N 360 5 min 717 W/m 8,0 km/h
23.05.2019 10:15 13,3 C 12,8 C 13,3 C 13,5 C 17,8 C 73 % 4 cb 1019,5 hPa 0,0 l/m 8,5 km/h N-NO 22 5 min 702 W/m 12,8 km/h
23.05.2019 10:10 13,2 C 12,8 C 13,3 C 13,5 C 17,9 C 75 % 4 cb 1019,6 hPa 0,0 l/m 5,3 km/h N 360 5 min 689 W/m 12,8 km/h
23.05.2019 10:05 12,8 C 12,8 C 13,3 C 13,5 C 17,3 C 77 % 4 cb 1019,7 hPa 0,0 l/m 5,5 km/h N-NO 22 5 min 681 W/m 8,0 km/h
23.05.2019 10:00 12,6 C 12,8 C 13,3 C 13,5 C 16,2 C 77 % 4 cb 1019,8 hPa 0,0 l/m 6,9 km/h N 360 5 min 667 W/m 9,6 km/h
_ Min-Zeit 05:35 10:00 10:00 10:00 04:55 17:20 10:00 17:05 - 06:20 - - - - 06:25
Minimum _ 6,8 C 12,8 C 13,3 C 13,5 C 4,2 C 37 % 4 cb 1013,8 hPa - 0,0 km/h - - - - 0,0 km/h
_ Max-Zeit 15:55 00:15 19:10 17:30 15:50 05:00 05:20 10:00 10:00 16:05 - - 10:00 13:35 22:15
Maximum _ 19,8 C 14,1 C 17,1 C 18,8 C 35,3 C 85 % 9 cb 1019,8 hPa 0,0 l/m 16,5 km/h
O-NO
- - 5 min 926 W/m 27,2 km/h
S
Durchschnitt _ 13,6 C 13,5 C 15,3 C 16,1 C 16,3 C 64 % 7 cb 1017,2 hPa #0,0 l/m 7,2 km/h S-SW - #3:40 h 274 W/m 12,6 km/h